Retour au catalogue

SS-18 R/B

ActifLEO
NORAD 25695·ROCKET BODY·🇷🇺 Russia

Lancé Apr 21, 1999 depuis Baikonur Cosmodrome

Loading…

Prochains Passages (prochaines 24 heures)

TLE

FraisSource: Space-Track

Époque: Sep 14, 2026, 19:48 UTC

1 25695U 99021C   26257.82530186  .00000073  00000-0  62077-4 0  9999
2 25695  64.5525 284.7071 0569993 287.9229  66.0485 13.73083154372281

Suivez SS-18 R/B en temps réel avec AllMySat

Download on the App Store